Liberia, Costa Rica

2:15 AM CST on April 25, 2017 (GMT -0600)
Daniel Oduber Quiros International

Weather History for MRLB - October, 2013

Change the Weather History Date:

Tuesday, October 8, 2013

  Actual Average Record
Temperature  
Mean Temperature 82 °F -  
Max Temperature 92 °F 84 °F 92 °F (2013)
Min Temperature 73 °F 73 °F 72 °F (2012)
Cooling Degree Days 18    
Growing Degree Days 32 (Base 50)    
Moisture  
Dew Point 74 °F    
Average Humidity 77    
Maximum Humidity 95    
Minimum Humidity 45    
Precipitation  
Precipitation 0.16 in - - ()
Sea Level Pressure  
Sea Level Pressure 29.84 in    
Wind  
Wind Speed 4 mph ()    
Max Wind Speed 8 mph    
Max Gust Speed -    
Visibility 6.3 miles    
Events Fog , Rain , Thunderstorm    
Averages and records for this station are not official NWS values.
T = Trace of Precipitation, MM = Missing Value Source: Averaged Metar Reports

Daily Weather History Graph

Daily Weather History Graph

Search for Another Location

Airport or City:

Trip Planner

Search our weather history database for the weather conditions in past years. The results will help you decide how hot, cold, wet, or windy it might be!

Date:

Astronomy

Oct. 08, 2013 Rise Set
Actual Time 5:30 AM CST 5:28 PM CST
Civil Twilight 5:09 AM CST 5:49 PM CST
Nautical Twilight 4:45 AM CST 6:13 PM CST
Astronomical Twilight 4:20 AM CST 6:38 PM CST
Moon 8:46 AM CST (10/8) 8:43 PM CST (10/8)
Length of Visible Light 12h 39m
Length of Day
11h 57m
Waxing Crescent, 16% of the Moon is Illuminated
Oct 8
Waxing Crescent
Oct 11
First Quarter
Oct 18
Full
Oct 26
Last Quarter
Nov 3
New

Hourly Weather History & Observations

Time (CST) Temp. Heat Index Dew Point Humidity Pressure Visibility Wind Dir Wind Speed Gust Speed Precip Events Conditions
6:00 AM 73 °F - 72 °F 95% 29.89 in 1 mi East 3.5 mph - -   Mist
6:00 AM 73.4 °F - 71.6 °F 94% 29.87 in 0.6 mi East 3.5 mph - N/A   Mist
7:00 AM 75.2 °F - 71.6 °F 89% 29.88 in 0.5 mi NE 3.5 mph - N/A Fog Fog
7:10 AM 75.2 °F - 71.6 °F 89% 29.88 in 1.9 mi NE 3.5 mph - N/A   Scattered Clouds
7:27 AM 77.0 °F - 73.4 °F 89% 29.88 in 6.2 mi NE 3.5 mph - N/A   Scattered Clouds
8:00 AM 78.8 °F - 73.4 °F 83% 29.88 in 6.2 mi ENE 3.5 mph - N/A   Scattered Clouds
9:00 AM 81 °F - 75 °F 78% 29.90 in 12 mi SSW 4.6 mph - -   Partly Cloudy
9:00 AM 80.6 °F 86.2 °F 75.2 °F 84% 29.89 in 6.2 mi SSW 4.6 mph - N/A   Scattered Clouds
10:00 AM 82.4 °F 89.5 °F 75.2 °F 79% 29.89 in 6.2 mi WSW 4.6 mph - N/A   Scattered Clouds
11:00 AM 86.0 °F 95.1 °F 75.2 °F 70% 29.87 in 6.2 mi SSE 3.5 mph - N/A   Scattered Clouds
12:00 PM 89 °F - 75 °F 56% 29.85 in 12 mi SW 3.5 mph - -   Partly Cloudy
12:00 PM 87.8 °F 97.6 °F 75.2 °F 66% 29.84 in 6.2 mi SW 3.5 mph - N/A   Scattered Clouds
1:00 PM 91.4 °F 100.1 °F 73.4 °F 55% 29.81 in 6.2 mi ESE 8.1 mph - N/A   Scattered Clouds
2:00 PM 93.2 °F 100.5 °F 71.6 °F 49% 29.78 in 6.2 mi NE 5.8 mph - N/A   Scattered Clouds
3:00 PM 92 °F - 73 °F 45% 29.77 in 12 mi East 4.6 mph - -   Partly Cloudy
3:00 PM 93.2 °F 102.4 °F 73.4 °F 52% 29.76 in 6.2 mi East 4.6 mph - N/A   Scattered Clouds
3:40 PM 84.2 °F 94.1 °F 77.0 °F 79% 29.78 in 6.2 mi North 4.6 mph - N/A Rain , Thunderstorm Thunderstorms and Rain
4:00 PM 78.8 °F - 75.2 °F 89% 29.78 in 6.2 mi WNW 5.8 mph - N/A Rain , Thunderstorm Light Thunderstorms and Rain
5:00 PM 78.8 °F - 75.2 °F 89% 29.79 in 6.2 mi SSW 5.8 mph - N/A Thunderstorm Mostly Cloudy
6:00 PM 78 °F - 73 °F 82% 29.82 in 12 mi SSW 3.5 mph - -   Partly Cloudy
6:00 PM 78.8 °F - 73.4 °F 83% 29.80 in 6.2 mi SSW 3.5 mph - N/A   Overcast
7:00 PM 77.0 °F - 73.4 °F 89% 29.83 in 6.2 mi NNW 2.3 mph - N/A   Overcast
8:00 PM 77.0 °F - 73.4 °F 89% 29.85 in 6.2 mi NE 3.5 mph - N/A   Overcast